Other Surface Observations
Issued by NWS

Home | Current Version | Previous Version | Text Only | Print | Product List | Glossary On
Versions: 1 2 3 4 5 6 7 8 9 10 11 12 13 14 15 16 17 18 19 20 21 22 23 24 25 26 27 28 29 30 31 32 33 34 35 36 37 38 39 40 41 42 43 44 45 46 47 48 49 50
765
SXUS52 KTAE 192218
OSOTAE
OSOTAE
North Florida/South Alabama/Southwest Georgia Weather Roundup
National Weather Service Tallahassee Florida
500 PM EST SUN NOV 19 2017

Note: "fair" indicates few or no clouds below 12,000 feet with no
significant weather and/or obstructions to visibility.

!FLZ017-115-028-034-025-192300
...North Florida...

CITY           SKY/WX    TMP DP  RH WIND       PRES   REMARKS
TALLAHASSEE    PTCLDY    64  33  31 N10       29.99R
APALACHICOLA   CLEAR     65  37  35 N7        29.99R
PERRY          CLEAR     65  34  31 N8        29.98R
CROSS CITY     CLEAR     65  47  52 N8        30.00R
JACKSONVILLE   PTCLDY    66  42  41 NW10      29.93R
$$

!FLZ112-006-005-002-011-192300
...Florida Panhandle...

CITY           SKY/WX    TMP DP  RH WIND       PRES   REMARKS
MARIANNA       CLEAR     63  32  31 NW13      30.02R
BONIFAY        NOT AVBL
PANAMA CITY NW FAIR      61  36  39 NW14      30.02R
TYNDALL AFB    CLEAR     63  36  36 N10       30.01R
TYND DRONE APT FAIR      62  37  38 N10       30.01R
DE FUNIAK SPR  FAIR      58  33  38 N14       30.05S
EGLIN AFB      PTCLDY    61  31  32 N12       30.05R
DESTIN         CLEAR     63  32  31 N15       30.05R
HURLBURT       CLEAR     60  34  38 N12       30.04R
CRESTVIEW      CLEAR     60  34  37 N6        30.08R
PENSACOLA      CLEAR     61  34  36 N15       30.07R
$$

!ALZ063-066-192300
...South Alabama...

CITY           SKY/WX    TMP DP  RH WIND       PRES   REMARKS
DOTHAN         CLEAR     59  32  36 N15       30.08R
OZARK CAIRNS   CLEAR     58  34  40 NW12      30.05R
FT RUCKER HELI NOT AVBL
RUCKER HELI 3    N/A     57  34  41 N13       30.05R
RUCKER HELI 2  FAIR      59  36  42 NW6       30.04R
FLORALA APT    CLEAR     57  34  41 N6        30.09R
ANDALUSIA      CLEAR     60  33  36 NW12      30.07R
TROY           CLEAR     56  32  40 N13       30.07S
EUFALA         FAIR      59  34  39 VRB7      30.04R
MOBILE         CLEAR     59  32  36 N15       30.11R
$$

!GAZ120>161-192300
...Southwest and South Central Georgia...

CITY           SKY/WX    TMP DP  RH WIND       PRES   REMARKS
THOMASVILLE    FAIR      63  32  31 N7        30.01R
BAINBRIDGE     CLEAR     63  37  39 N7        30.02R
MOODY AFB      CLEAR     61  33  34 NW10      29.97R
VALDOSTA       CLEAR     61  37  41 VRB3      29.98R
MOULTRIE       CLEAR     61  32  33 NW10      30.01R
BLAKELY        CLEAR     61  34  36 N7        30.04R
ALBANY         CLEAR     61  34  36 NW12      30.03R
TIFTON         FAIR      59  34  38 NW14      30.00R
FITZGERALD     FAIR      60  34  38 NW13      30.02R
CORDELE        FAIR      64  31  30 N8        30.03R
AMERICUS       FAIR      57  23  26 NW7       30.05R
HOMERVILLE     FAIR      61  36  39 NW9       29.98R
$$

!GMZ750-755-770-775-192300
...Coastal and Buoy Obs...

STATION/POSITION TIME  TEMP    WIND        PRES    VSBY  WAVE
                       AIR SEA DIR/SP/G                  HT/PER
                 (UTC) (F)     (DEG/KT/KT) (MB)    (MI)  (FT/S)
KEATON BEACH     2200   65     360/  7/ 10 1014.5R
CEDAR KEY        2200   68      10/  6/  9 1014.1R
C TOWER          2200   64     360/ 15/ 17 1015.7R
APALACHICOLA BUO 2150   66 75  360/ 16/ 19 1014.5R         6/ 7
PANAMA CITY BUOY 2150   64 78  350/ 19/ 23 1015.7R         6/ 8
MOBILE BUOY      2200   62 78  350/ 17/ 23 1018.7
ORANGE BCH AL BU NOT AVBL
$$




USA.gov is the U.S. government's official web portal to all federal, state and local government web resources and services.